weather.gov     
National Weather Service

Terminal Aerodrome Forecast
NWS Homepage
This page is being discontinued on March 12, 2014.
The same data is available at this site. Please update your bookmarks.
Thank you, and we apologize for the inconvenience.
Please send an email to SR-SRH.Webmaster@noaa.gov with any concerns.


Current Version
Previous Version:    01  02  03  04  05  06  07  08  09  10  11  12  13  14  15  16  17  18  19  20  21  22  23  24  25  26  27  28  29  30  
   31  
[Printable]
531
FTUS46 KPDT 251100
TAFALW
TAF
KALW 251120Z 2512/2612 19007KT 1/4SM FG VV001
     FM251600 15006KT 2SM BR BKN002 BKN250
     FM251800 20011KT P6SM BKN100
     FM252200 22014KT P6SM OVC080
     FM260300 22018G25KT P6SM -SHRA BKN050 OVC070
     FM260700 22022G32KT P6SM -SHRA OVC040=


U.S. Dept. of Commerce
NOAA National Weather Service
1325 East West Highway
Silver Spring, MD 20910
E-mail: w-nws.webmaster@noaa.gov
Page last modified: May 16, 2007
NATIONAL WEATHER SERVICE: for Safety, for Work, for Fun - FOR LIFE